Location: Huntsville
(41.2590°N, 111.7678°W)
Time: 19:23:32
(UTC+00:00)

Explorer 7 - Pass Details

Date: 18 June 2021
Orbit: 484 x 676 km, 50.3° (Epoch: 30 July)

Event Time Altitude Azimuth Distance (km) Brightness Sun altitude
Rises 09:28:55 0° 302° (WNW) 2,960 10.6 -19.5°
Reaches altitude 10° 09:31:27 10° 310° (NW) 2,021 9.8 -19.3°
Maximum altitude 09:35:47 37° 19° (NNE) 946 8.6 -18.9°
Drops below altitude 10° 09:39:52 10° 88° (E) 1,905 10.0 -18.5°
Sets 09:42:12 0° 96° (E) 2,767 10.8 -18.3°
